Location: Ravensburg
(48.5621°N, 13.4088°E)
Time: 23:24:46
(UTC+01:00)

ISS - Pass Details

Date: 14 November 2017
Orbit: 401 x 407 km, 51.6° (Epoch: 25 November)

Event Time Altitude Azimuth Distance (km) Brightness Sun altitude
Exits shadow 05:45:37 30° 265° (W) 749 -3.0 -14.4°
Maximum altitude 05:46:49 47° 210° (SSW) 541 -3.4 -14.2°
Drops below altitude 10° 05:49:57 10° 135° (SE) 1,450 -0.1 -13.7°
Sets 05:52:04 0° 130° (SE) 2,306 1.2 -13.4°
